User: anonymous   Login
Location: Eschertshofen
(49.3064°N, 11.5756°E)
Time: 12:22:13
(UTC+00:00)
Language:

Cosmos 2279 Rocket - Orbit

View from above orbital plane
View from above orbital plane
View from above satellite
View from above satellite

Ground track
Ground track

The orbit data is extracted from the following two-line orbital elements,

1 23093U 94024B   21162.91119053 -.00000012  00000-0 -27023-4 0  9990
2 23093  82.9454 111.6262 0008831 241.0130 119.0142 13.77857600831645
Epoch (UTC): 11 June 2021 21:52:06
Eccentricity: 0.0008831
inclination: 82.9454°
perigee height: 965 km
apogee height: 978 km
right ascension of ascending node: 111.6262°
argument of perigee: 241.0130°
revolutions per day: 13.77857600
mean anomaly at epoch: 119.0142°
orbit number at epoch: 83164

The dashed part of the orbit path shows where the satellite is in the earth's shadow,  

DLR